| time (UTC) | temp F | wind direction | speed MPH | gust MPH | rain 1hr in | rain 24hr in | rain mn in | humidity % | barometer mb |
| 20260507042703 | 45 | 52 | 4.0 | 9.0 | 0.00 | 0.00 | 0.00 | 96 | 1013.4 |
| 20260507041803 | 45 | 52 | 3.0 | 10.0 | 0.00 | 0.00 | 0.00 | 96 | 1013.3 |
| 20260507041117 | 45 | 47 | 2.0 | 9.0 | 0.00 | 0.00 | 0.00 | 96 | 1013.3 |
| 20260507040003 | 45 | 76 | 1.0 | 4.0 | 0.00 | 0.00 | 0.00 | 96 | 1013.4 |
| 20260507035618 | 45 | 81 | 1.0 | 4.0 | 0.00 | 0.00 | 0.00 | 96 | 1013.5 |
| 20260507034717 | 45 | 53 | 2.0 | 7.0 | 0.00 | 0.00 | 0.00 | 96 | 1013.5 |
| 20260507033603 | 46 | 35 | 4.0 | 8.0 | 0.00 | 0.00 | 0.00 | 96 | 1013.4 |
| 20260507032917 | 46 | 36 | 4.0 | 8.0 | 0.00 | 0.00 | 0.00 | 96 | 1013.5 |
| 20260507031803 | 45 | 35 | 1.0 | 6.0 | 0.00 | 0.00 | 0.00 | 96 | 1013.6 |
| 20260507030903 | 45 | 0 | 0.0 | 0.0 | 0.00 | 0.00 | 0.00 | 96 | 1013.7 |
| 20260507024503 | 45 | 86 | 0.0 | 2.0 | 0.00 | 0.00 | 0.00 | 96 | 1013.5 |
| 20260507023603 | 45 | 0 | 0.0 | 0.0 | 0.00 | 0.00 | 0.00 | 96 | 1013.6 |
| 20260507022703 | 45 | 64 | 0.0 | 1.0 | 0.00 | 0.00 | 0.00 | 96 | 1013.6 |
| 20260507021803 | 45 | 67 | 0.0 | 2.0 | 0.00 | 0.00 | 0.00 | 95 | 1013.9 |
| 20260507020903 | 45 | 62 | 0.0 | 1.0 | 0.00 | 0.00 | 0.00 | 95 | 1013.8 |
| 20260507015403 | 46 | 60 | 1.0 | 3.0 | 0.00 | 0.00 | 0.00 | 94 | 1013.7 |
| 20260507014503 | 46 | 27 | 0.0 | 3.0 | 0.00 | 0.00 | 0.00 | 94 | 1013.8 |
| 20260507013603 | 45 | 80 | 0.0 | 2.0 | 0.00 | 0.00 | 0.00 | 94 | 1013.9 |
| 20260507012917 | 45 | 67 | 1.0 | 2.0 | 0.00 | 0.00 | 0.00 | 93 | 1013.7 |
| 20260507011803 | 45 | 51 | 2.0 | 4.0 | 0.00 | 0.00 | 0.00 | 93 | 1014.1 |
| 20260507010003 | 45 | 69 | 1.0 | 3.0 | 0.00 | 0.00 | 0.00 | 93 | 1014.2 |
| 20260507005618 | 45 | 67 | 1.0 | 3.0 | 0.00 | 0.00 | 0.00 | 93 | 1014.1 |
| 20260507004503 | 45 | 64 | 2.0 | 6.0 | 0.00 | 0.00 | 0.00 | 93 | 1014.2 |
| 20260507003603 | 46 | 60 | 3.0 | 7.0 | 0.00 | 0.00 | 0.00 | 93 | 1014.0 |
| 20260507002703 | 46 | 62 | 2.0 | 6.0 | 0.00 | 0.00 | 0.00 | 93 | 1014.2 |
| 20260507000903 | 46 | 58 | 2.0 | 7.0 | 0.00 | 0.00 | 0.00 | 92 | 1014.3 |
| 20260507000003 | 46 | 59 | 2.0 | 7.0 | 0.00 | 0.00 | 0.00 | 91 | 1014.6 |
| 20260506235618 | 46 | 59 | 2.0 | 6.0 | 0.00 | 0.00 | 0.00 | 91 | 1014.5 |
| 20260506234504 | 46 | 57 | 3.0 | 9.0 | 0.00 | 0.00 | 0.00 | 91 | 1014.3 |
| 20260506233603 | 46 | 54 | 3.0 | 8.0 | 0.00 | 0.00 | 0.00 | 91 | 1014.6 |
| 20260506231803 | 46 | 63 | 3.0 | 6.0 | 0.00 | 0.00 | 0.00 | 91 | 1014.5 |
| 20260506230903 | 46 | 52 | 3.0 | 7.0 | 0.00 | 0.00 | 0.00 | 91 | 1014.6 |
| 20260506230003 | 46 | 62 | 3.0 | 7.0 | 0.00 | 0.00 | 0.00 | 91 | 1014.3 |
| 20260506225403 | 46 | 55 | 3.0 | 9.0 | 0.00 | 0.00 | 0.00 | 91 | 1014.4 |
| 20260506224716 | 46 | 53 | 4.0 | 9.0 | 0.00 | 0.00 | 0.00 | 92 | 1014.3 |
| 20260506222703 | 46 | 48 | 3.0 | 8.0 | 0.00 | 0.00 | 0.00 | 92 | 1014.6 |
| 20260506221803 | 46 | 62 | 3.0 | 8.0 | 0.00 | 0.00 | 0.00 | 92 | 1014.5 |
| 20260506220903 | 46 | 59 | 2.0 | 8.0 | 0.00 | 0.00 | 0.00 | 92 | 1014.5 |
| 20260506220003 | 47 | 70 | 2.0 | 8.0 | 0.00 | 0.00 | 0.00 | 92 | 1014.3 |
| 20260506215617 | 47 | 70 | 2.0 | 8.0 | 0.00 | 0.00 | 0.00 | 91 | 1014.6 |
| 20260506213603 | 47 | 70 | 3.0 | 8.0 | 0.00 | 0.00 | 0.00 | 90 | 1014.8 |
| 20260506212917 | 47 | 74 | 3.0 | 10.0 | 0.00 | 0.00 | 0.00 | 90 | 1014.6 |
| 20260506211803 | 48 | 70 | 3.0 | 8.0 | 0.00 | 0.00 | 0.00 | 89 | 1014.5 |
| 20260506210903 | 48 | 67 | 4.0 | 10.0 | 0.00 | 0.00 | 0.00 | 89 | 1014.5 |
| 20260506205403 | 48 | 62 | 5.0 | 14.0 | 0.00 | 0.00 | 0.00 | 89 | 1014.2 |
| 20260506204503 | 48 | 59 | 5.0 | 12.0 | 0.00 | 0.00 | 0.00 | 89 | 1014.5 |
| 20260506203603 | 49 | 57 | 4.0 | 12.0 | 0.00 | 0.00 | 0.00 | 88 | 1014.2 |
| 20260506202703 | 49 | 59 | 4.0 | 10.0 | 0.00 | 0.00 | 0.00 | 88 | 1014.6 |
| 20260506201803 | 49 | 56 | 5.0 | 12.0 | 0.00 | 0.00 | 0.00 | 87 | 1014.4 |
| 20260506200003 | 50 | 62 | 5.0 | 12.0 | 0.00 | 0.00 | 0.00 | 86 | 1014.2 |
| 20260506195403 | 50 | 60 | 5.0 | 15.0 | 0.00 | 0.00 | 0.00 | 85 | 1014.5 |
| 20260506194717 | 50 | 60 | 5.0 | 15.0 | 0.00 | 0.00 | 0.00 | 83 | 1014.2 |
| 20260506193817 | 51 | 60 | 4.0 | 11.0 | 0.00 | 0.00 | 0.00 | 82 | 1014.0 |
| 20260506192703 | 51 | 69 | 2.0 | 7.0 | 0.00 | 0.00 | 0.00 | 81 | 1013.9 |
| 20260506190003 | 53 | 53 | 5.0 | 11.0 | 0.00 | 0.00 | 0.00 | 77 | 1013.8 |
| 20260506185618 | 54 | 55 | 5.0 | 11.0 | 0.00 | 0.00 | 0.00 | 76 | 1013.8 |
| 20260506184717 | 54 | 55 | 4.0 | 11.0 | 0.00 | 0.00 | 0.00 | 74 | 1013.7 |
| 20260506183603 | 55 | 53 | 5.0 | 10.0 | 0.00 | 0.00 | 0.00 | 72 | 1013.6 |
| 20260506182703 | 56 | 59 | 2.0 | 6.0 | 0.00 | 0.00 | 0.00 | 69 | 1013.6 |
| 20260506180218 | 57 | 56 | 5.0 | 12.0 | 0.00 | 0.00 | 0.00 | 63 | 1013.6 |
| 20260506175403 | 58 | 62 | 5.0 | 12.0 | 0.00 | 0.00 | 0.00 | 61 | 1013.5 |
| 20260506174503 | 58 | 54 | 4.0 | 9.0 | 0.00 | 0.00 | 0.00 | 62 | 1013.6 |
| 20260506173818 | 59 | 64 | 3.0 | 9.0 | 0.00 | 0.00 | 0.00 | 59 | 1013.6 |
| 20260506172703 | 59 | 37 | 3.0 | 8.0 | 0.00 | 0.00 | 0.00 | 54 | 1013.9 |
| 20260506170903 | 59 | 16 | 3.0 | 7.0 | 0.00 | 0.01 | 0.00 | 53 | 1013.8 |
| 20260506170003 | 59 | 27 | 2.0 | 4.0 | 0.00 | 0.01 | 0.00 | 54 | 1013.7 |
| 20260506165403 | 58 | 36 | 2.0 | 3.0 | 0.00 | 0.02 | 0.00 | 54 | 1013.9 |
| 20260506164503 | 57 | 42 | 2.0 | 4.0 | 0.00 | 0.02 | 0.00 | 58 | 1013.9 |
| 20260506163603 | 58 | 44 | 2.0 | 3.0 | 0.00 | 0.02 | 0.00 | 56 | 1013.8 |
| 20260506162018 | 58 | 32 | 3.0 | 6.0 | 0.00 | 0.02 | 0.00 | 54 | 1013.8 |
| 20260506160903 | 58 | 39 | 2.0 | 6.0 | 0.00 | 0.02 | 0.00 | 53 | 1013.8 |
| 20260506160217 | 58 | 31 | 3.0 | 6.0 | 0.00 | 0.02 | 0.00 | 48 | 1013.9 |
| 20260506155617 | 58 | 34 | 2.0 | 4.0 | 0.00 | 0.02 | 0.00 | 48 | 1013.9 |
| 20260506154503 | 58 | 45 | 2.0 | 6.0 | 0.00 | 0.03 | 0.00 | 49 | 1014.0 |
| 20260506150903 | 61 | 315 | 3.0 | 7.0 | 0.00 | 0.12 | 0.00 | 48 | 1014.2 |
| 20260506150219 | 60 | 343 | 2.0 | 7.0 | 0.00 | 0.12 | 0.00 | 48 | 1014.2 |
| 20260506145403 | 61 | 310 | 1.0 | 3.0 | 0.00 | 0.12 | 0.00 | 47 | 1014.4 |
| 20260506144503 | 59 | 222 | 3.0 | 7.0 | 0.00 | 0.12 | 0.00 | 46 | 1014.4 |
| 20260506143603 | 59 | 33 | 1.0 | 4.0 | 0.00 | 0.12 | 0.00 | 49 | 1014.7 |
| 20260506142703 | 57 | 37 | 1.0 | 3.0 | 0.00 | 0.12 | 0.00 | 54 | 1014.6 |
| 20260506141803 | 56 | 26 | 3.0 | 8.0 | 0.00 | 0.12 | 0.00 | 56 | 1014.7 |
| 20260506140903 | 58 | 25 | 3.0 | 8.0 | 0.00 | 0.12 | 0.00 | 54 | 1014.8 |
| 20260506140003 | 61 | 308 | 3.0 | 8.0 | 0.00 | 0.12 | 0.00 | 53 | 1014.9 |
| 20260506135403 | 59 | 230 | 3.0 | 7.0 | 0.00 | 0.12 | 0.00 | 53 | 1014.8 |
| 20260506134503 | 59 | 210 | 3.0 | 6.0 | 0.00 | 0.12 | 0.00 | 52 | 1015.1 |
| 20260506131804 | 60 | 305 | 2.0 | 6.0 | 0.00 | 0.12 | 0.00 | 50 | 1015.3 |
| 20260506130903 | 59 | 328 | 3.0 | 6.0 | 0.00 | 0.12 | 0.00 | 54 | 1015.4 |
| 20260506130004 | 60 | 306 | 2.0 | 6.0 | 0.00 | 0.12 | 0.00 | 53 | 1015.2 |
| 20260506125403 | 60 | 268 | 2.0 | 7.0 | 0.00 | 0.12 | 0.00 | 56 | 1015.2 |
| 20260506123603 | 58 | 257 | 2.0 | 6.0 | 0.00 | 0.12 | 0.00 | 56 | 1015.2 |
| 20260506122917 | 57 | 284 | 3.0 | 7.0 | 0.00 | 0.12 | 0.00 | 55 | 1015.5 |
| 20260506121803 | 57 | 233 | 2.0 | 6.0 | 0.00 | 0.12 | 0.00 | 61 | 1015.4 |
| 20260506120903 | 55 | 251 | 3.0 | 6.0 | 0.00 | 0.12 | 0.00 | 63 | 1015.5 |
| 20260506120004 | 55 | 12 | 2.0 | 7.0 | 0.00 | 0.12 | 0.00 | 61 | 1015.6 |
| 20260506114503 | 58 | 260 | 3.0 | 8.0 | 0.00 | 0.12 | 0.00 | 59 | 1015.8 |
| 20260506113603 | 56 | 6 | 3.0 | 6.0 | 0.00 | 0.12 | 0.00 | 60 | 1015.7 |
| 20260506112917 | 55 | 48 | 2.0 | 4.0 | 0.00 | 0.12 | 0.00 | 59 | 1015.8 |
| 20260506111803 | 55 | 192 | 2.0 | 7.0 | 0.00 | 0.12 | 0.00 | 62 | 1015.9 |
| 20260506110003 | 53 | 301 | 2.0 | 6.0 | 0.00 | 0.12 | 0.00 | 65 | 1015.9 |
| 20260506105403 | 55 | 2 | 2.0 | 6.0 | 0.00 | 0.12 | 0.00 | 63 | 1015.9 |
| 20260506104503 | 55 | 8 | 2.0 | 6.0 | 0.00 | 0.12 | 0.00 | 64 | 1016.0 |
| 20260506103817 | 55 | 308 | 2.0 | 7.0 | 0.00 | 0.12 | 0.00 | 65 | 1015.8 |
| 20260506102919 | 55 | 216 | 2.0 | 6.0 | 0.00 | 0.12 | 0.00 | 68 | 1015.7 |
| 20260506100003 | 52 | 199 | 1.0 | 3.0 | 0.00 | 0.12 | 0.00 | 67 | 1016.2 |
| 20260506095403 | 53 | 162 | 1.0 | 3.0 | 0.00 | 0.12 | 0.00 | 70 | 1016.2 |
| 20260506094503 | 51 | 343 | 1.0 | 4.0 | 0.00 | 0.12 | 0.00 | 70 | 1016.2 |
| 20260506093603 | 51 | 314 | 2.0 | 4.0 | 0.00 | 0.12 | 0.00 | 73 | 1016.1 |
| 20260506092703 | 51 | 310 | 3.0 | 8.0 | 0.00 | 0.12 | 0.00 | 74 | 1016.1 |
| 20260506091803 | 54 | 242 | 1.0 | 6.0 | 0.00 | 0.12 | 0.00 | 73 | 1015.8 |
| 20260506090903 | 52 | 205 | 2.0 | 4.0 | 0.00 | 0.12 | 0.00 | 74 | 1016.0 |
| 20260506090003 | 50 | 241 | 2.0 | 7.0 | 0.00 | 0.12 | 0.00 | 78 | 1015.9 |
| 20260506085403 | 49 | 247 | 3.0 | 7.0 | 0.00 | 0.12 | 0.00 | 78 | 1016.1 |
| 20260506084504 | 50 | 263 | 2.0 | 4.0 | 0.00 | 0.12 | 0.00 | 76 | 1015.9 |
| 20260506083603 | 50 | 206 | 1.0 | 4.0 | 0.00 | 0.12 | 0.00 | 77 | 1015.9 |
| 20260506080903 | 49 | 172 | 0.0 | 2.0 | 0.00 | 0.12 | 0.00 | 83 | 1015.9 |
| 20260506071803 | 46 | 51 | 0.0 | 1.0 | 0.00 | 0.12 | 0.00 | 91 | 1015.8 |
| 20260506070903 | 45 | 119 | 0.0 | 1.0 | 0.00 | 0.12 | 0.00 | 92 | 1015.8 |
| 20260506061803 | 42 | 59 | 0.0 | 2.0 | 0.00 | 0.12 | 0.00 | 99 | 1015.7 |
| 20260506060903 | 40 | 43 | 1.0 | 3.0 | 0.00 | 0.12 | 0.00 | 99 | 1015.7 |
| 20260506050903 | 38 | 55 | 1.0 | 2.0 | 0.00 | 0.12 | 0.00 | 99 | 1015.3 |
| 20260506044503 | 39 | 62 | 1.0 | 2.0 | 0.00 | 0.12 | 0.00 | 99 | 1015.3 |